Palmdale, CA

5:04 AM PST on February 09, 2016 (GMT -0800)
Palmdale Af Plant 42

Weather History for KPMD - May, 2013

Change the Weather History Date:

Wednesday, May 29, 2013

  Actual Average Record
Temperature  
Mean Temperature 71 °F 71 °F  
Max Temperature 82 °F 87 °F 102 °F (1984)
Min Temperature 60 °F 55 °F 39 °F (1942)
Degree Days  
Heating Degree Days 0 1  
Month to date heating degree days 32 66  
Since 1 July heating degree days 2547 2916  
Cooling Degree Days 6 7  
Month to date cooling degree days 137 132  
Year to date cooling degree days 210 155  
Growing Degree Days 20 (Base 50)    
Moisture  
Dew Point 41 °F    
Average Humidity 42    
Maximum Humidity 60    
Minimum Humidity 23    
Precipitation  
Precipitation 0.00 in 0.00 in 0.02 in (1988)
Month to date precipitation T 0.24  
Year to date precipitation 0.71 5.22  
Since 1 July precipitation 1.00  
Snow  
Snow 0.00 in - - ()
Month to date snowfall 0.0  
Since 1 July snowfall 0.0  
Snow Depth 0.00 in    
Sea Level Pressure  
Sea Level Pressure 29.79 in    
Wind  
Wind Speed 25 mph (West)    
Max Wind Speed 43 mph    
Max Gust Speed 49 mph    
Visibility 7 miles    
Events      
T = Trace of Precipitation, MM = Missing Value Source: NWS Daily Summary

Daily Weather History Graph

Daily Weather History Graph

Search for Another Location

Airport or City:

Trip Planner

Search our weather history database for the weather conditions in past years. The results will help you decide how hot, cold, wet, or windy it might be!

Date:

Astronomy

May. 29, 2013 Rise Set
Actual Time 5:41 AM PDT 7:58 PM PDT
Civil Twilight 5:12 AM PDT 8:27 PM PDT
Nautical Twilight 4:37 AM PDT 9:02 PM PDT
Astronomical Twilight 3:58 AM PDT 9:41 PM PDT
Moon No Moon Rise 10:39 AM PDT (5/29)
Length of Visible Light 15h 14m
Length of Day
14h 17m
Waning Gibbous, 72% of the Moon is Illuminated
May 29
Waning Gibbous
May 31
Last Quarter
Jun 8
New
Jun 16
First Quarter
Jun 23
Full

Hourly Weather History & Observations

Time (PDT) Temp. Dew Point Humidity Pressure Visibility Wind Dir Wind Speed Gust Speed Precip Events Conditions
12:29 AM 62.6 °F 46.4 °F 55% 29.87 in 10.0 mi West 11.5 mph 20.7 mph N/A   Scattered Clouds
12:53 AM 63.0 °F 46.9 °F 56% 29.81 in 10.0 mi West 18.4 mph 26.5 mph N/A   Partly Cloudy
1:53 AM 63.0 °F 46.9 °F 56% 29.81 in 10.0 mi West 20.7 mph 26.5 mph N/A   Clear
2:53 AM 62.1 °F 48.0 °F 60% 29.82 in 10.0 mi WSW 13.8 mph 24.2 mph N/A   Clear
3:53 AM 62.1 °F 42.1 °F 48% 29.77 in 10.0 mi WNW 17.3 mph - N/A   Clear
4:53 AM 63.0 °F 41.0 °F 45% 29.79 in 10.0 mi West 23.0 mph 32.2 mph N/A   Clear
5:53 AM 60.1 °F 45.0 °F 57% 29.80 in 10.0 mi West 20.7 mph - N/A   Clear
6:53 AM 61.0 °F 45.0 °F 56% 29.81 in 10.0 mi WNW 29.9 mph 35.7 mph N/A   Clear
7:53 AM 64.9 °F 45.0 °F 48% 29.84 in 6.0 mi West 23.0 mph 31.1 mph N/A   Haze
8:53 AM 66.9 °F 45.0 °F 45% 29.86 in 5.0 mi West 17.3 mph 25.3 mph N/A   Haze
9:53 AM 70.0 °F 45.0 °F 41% 29.86 in 6.0 mi WNW 26.5 mph 32.2 mph N/A   Haze
10:53 AM 73.0 °F 43.0 °F 34% 29.85 in 10.0 mi WNW 23.0 mph 31.1 mph N/A   Clear
11:53 AM 77.0 °F 42.1 °F 29% 29.82 in 10.0 mi WNW 26.5 mph 33.4 mph N/A   Clear
12:53 PM 78.1 °F 41.0 °F 27% 29.82 in 10.0 mi West 23.0 mph 29.9 mph N/A   Clear
1:53 PM 79.0 °F 42.1 °F 27% 29.80 in 10.0 mi West 21.9 mph 33.4 mph N/A   Clear
2:53 PM 81.0 °F 43.0 °F 26% 29.78 in 10.0 mi West 26.5 mph 33.4 mph N/A   Clear
3:53 PM 80.1 °F 39.0 °F 23% 29.76 in 10.0 mi West 29.9 mph 39.1 mph N/A   Clear
4:53 PM 79.0 °F 37.9 °F 23% 29.72 in 4.0 mi WNW 39.1 mph 46.0 mph N/A   Haze
5:07 PM 78.8 °F 37.4 °F 23% 29.78 in 1.8 mi WNW 40.3 mph 49.5 mph N/A   Haze
5:16 PM 78.8 °F 35.6 °F 21% 29.78 in 3.0 mi WNW 40.3 mph 47.2 mph N/A   Haze
5:24 PM 78.8 °F 35.6 °F 21% 29.78 in 1.2 mi West 39.1 mph 49.5 mph N/A   Haze
5:27 PM 78.8 °F 35.6 °F 21% 29.78 in 0.8 mi WNW 40.3 mph 49.5 mph N/A   Haze
5:34 PM 78.8 °F 33.8 °F 20% 29.78 in 1.5 mi West 40.3 mph 49.5 mph N/A   Haze
5:38 PM 78.8 °F 35.6 °F 21% 29.78 in 3.0 mi West 38.0 mph 49.5 mph N/A   Haze
5:49 PM 78.8 °F 37.4 °F 23% 29.78 in 1.5 mi West 38.0 mph 46.0 mph N/A   Haze
5:53 PM 77.0 °F 39.0 °F 25% 29.72 in 1.0 mi West 34.5 mph 46.0 mph N/A   Haze
6:10 PM 75.2 °F 35.6 °F 24% 29.79 in 2.0 mi West 35.7 mph 42.6 mph N/A   Haze
6:21 PM 75.2 °F 37.4 °F 25% 29.78 in 7.0 mi West 33.4 mph 42.6 mph N/A   Partly Cloudy
6:53 PM 75.0 °F 37.0 °F 25% 29.73 in 10.0 mi West 29.9 mph 36.8 mph N/A   Clear
7:53 PM 72.0 °F 41.0 °F 33% 29.72 in 10.0 mi WNW 24.2 mph 41.4 mph N/A   Clear
8:53 PM 70.0 °F 43.0 °F 38% 29.78 in 10.0 mi West 17.3 mph 28.8 mph N/A   Clear
9:53 PM 69.1 °F 43.0 °F 39% 29.78 in 10.0 mi West 21.9 mph 31.1 mph N/A   Clear
10:53 PM 69.1 °F 44.1 °F 40% 29.78 in 10.0 mi West 23.0 mph 28.8 mph N/A   Clear
11:53 PM 66.9 °F 46.0 °F 47% 29.79 in 10.0 mi WNW 28.8 mph 39.1 mph N/A   Clear